Flag for Belgium Weather past 2 weeks in Liège, Belgium

Now
46 °F

Sunny.


Feels Like: 40 °F
Forecast: 50 / 67 °F
Wind: 14 mph from Southwest

Location: Bierset

Current Time: May 7, 2015 at 7:49:20 AM

Latest Report: May 7, 2015 at 7:20 AM


Visibility: 10 mi

Pressure: 30.04 "Hg

Humidity: 82%

Dew point: 41 °F

Location of LiègeLocation

Historic Weather in Liège — Graph

°F

Liège temperature yesterday

Maximum temperature yesterday: 57 °F (at 10:50 AM)
Minimum temperature yesterday: 48 °F (at 5:50 AM)
Average temperature yesterday: 53 °F

Past Weeks' High & Low Weather Summary

 TemperatureHumidityPressure
High72 °F (May 5, 12:20 PM)100% (Apr 27, 2:20 AM)30.42 "Hg (Apr 27, 2:20 AM)
Low34 °F (Apr 28, 5:50 AM)35% (Apr 24, 1:20 PM)29.42 "Hg (May 5, 1:50 AM)
Average52 °F73%29.86 "Hg
* Reported Apr 22 6:20 AM — May 7 6:50 AM, Liège, Weather by CustomWeather, © 2015

Note: Actual official high and low records may vary slightly from our data, if they occured in-between our weather recording intervals... More about our weather records

Advertising

Liège weather history for previous 24 hours

 ConditionsComfort  
Time TempWeatherWind HumidityBarometerVisibility
6:50 AM
Thu, May 7
45 °FClear.15 mph87%30.04 "Hg10 mi
6:20 AM45 °FClear.14 mph87%30.01 "Hg10 mi
5:50 AM45 °FPassing clouds.12 mph87%30.01 "HgN/A
5:20 AM46 °FClear.10 mph82%30.01 "Hg10 mi
4:50 AM46 °FClear.13 mph87%30.01 "Hg10 mi
4:20 AM46 °FClear.15 mph87%30.01 "Hg10 mi
3:50 AM46 °FClear.14 mph87%30.01 "Hg10 mi
3:20 AM48 °FClear.14 mph82%29.98 "Hg10 mi
2:50 AM48 °FClear.16 mph82%29.98 "Hg10 mi
2:20 AM48 °FPassing clouds.14 mph82%29.98 "HgN/A
1:50 AM48 °FPassing clouds.15 mph82%29.98 "HgN/A
1:20 AM50 °FPassing clouds.14 mph82%29.98 "HgN/A
12:50 AM50 °FClear.14 mph76%29.98 "Hg10 mi
12:20 AM50 °FClear.13 mph76%29.98 "Hg10 mi
11:50 PM
Wed, May 6
50 °FClear.14 mph76%29.98 "Hg10 mi
10:50 PM50 °FClear.15 mph76%29.95 "Hg10 mi
10:20 PM50 °FClear.14 mph76%29.95 "Hg10 mi
9:50 PM52 °FSunny.16 mph72%29.95 "Hg10 mi
9:20 PM52 °FSunny.15 mph72%29.92 "Hg10 mi
8:50 PM52 °FPassing clouds.16 mph72%29.92 "HgN/A
8:20 PM52 °FPassing clouds.15 mph72%29.92 "HgN/A
7:50 PM52 °FSprinkles. Partly sunny.25 mph77%29.92 "Hg4 mi
7:20 PM57 °FPassing clouds.22 mph59%29.89 "HgN/A
6:50 PM57 °FPassing clouds.22 mph59%29.89 "HgN/A
6:20 PM57 °FPassing clouds.23 mph63%29.89 "HgN/A
5:50 PM57 °FPassing clouds.28 mph59%29.89 "HgN/A
5:20 PM57 °FPassing clouds.26 mph59%29.86 "HgN/A
4:50 PM57 °FThunderstorms. Scattered clouds.21 mph63%29.86 "HgN/A
4:20 PM57 °FPassing clouds.17 mph72%29.86 "HgN/A
3:50 PM54 °FPassing clouds.16 mph82%29.86 "HgN/A
3:20 PM48 °FSprinkles. Scattered clouds.18 mph87%29.89 "Hg5 mi
2:50 PM54 °FSprinkles. Scattered clouds.23 mph77%29.89 "HgN/A
2:20 PM55 °FPassing clouds.17 mph77%29.86 "HgN/A
1:50 PM52 °FRain showers. Scattered clouds.17 mph82%29.86 "Hg2 mi
1:20 PM55 °FBroken clouds.15 mph82%29.86 "HgN/A
12:50 PM54 °FSprinkles. Broken clouds.24 mph67%29.86 "HgN/A
12:20 PM57 °FPartly sunny.21 mph55%29.86 "HgN/A
11:50 AM57 °FPartly sunny.22 mph59%29.86 "HgN/A
11:20 AM57 °FScattered clouds.24 mph55%29.86 "HgN/A
10:50 AM57 °FScattered clouds.20 mph59%29.86 "HgN/A
10:20 AM55 °FPassing clouds.20 mph59%29.86 "HgN/A
9:50 AM54 °FPassing clouds.20 mph67%29.86 "HgN/A
9:20 AM52 °FPassing clouds.17 mph72%29.86 "HgN/A
8:50 AM52 °FPassing clouds.16 mph72%29.86 "HgN/A
8:20 AM50 °FPassing clouds.13 mph71%29.86 "HgN/A
7:50 AM50 °FPassing clouds.13 mph71%29.86 "HgN/A
7:20 AM48 °FSunny.12 mph76%29.86 "Hg10 mi
Weather by CustomWeather, © 2015

See weather overviewHow to use our weather pages